Regional Weather Roundup
Issued by NWS Jackson, KY

Home | Current Version | Previous Version | Graphics & Text | Print | Product List | Glossary On
Versions: 1 2 3 4 5 6 7 8 9 10 11 12 13 14 15 16 17 18 19 20 21 22 23 24 25 26 27 28 29 30 31 32 33 34 35 36 37 38 39 40 41 42 43 44 45 46 47 48 49 50
000
ASUS43 KJKL 290110
RWRJKL

EAST KENTUCKY HOURLY WEATHER ROUNDUP
NATIONAL WEATHER SERVICE JACKSON KY
900 PM EDT FRI AUG 28 2015

NOTE: "FAIR" INDICATES FEW OR NO CLOUDS BELOW 12,000 FEET WITH
NO SIGNIFICANT WEATHER AND/OR OBSTRUCTIONS TO VISIBILITY.

* THESE REPORTS ARE NOT UNDER NWS QUALITY CONTROL AND MAY NOT
  REPORT WEATHER SUCH AS PRECIPITATION AND FOG.

KYZ079-080-083-085-087-088-110-112-115-119-120-290200
...EASTERN KENTUCKY...

CITY           SKY/WX    TMP DP  RH WIND       PRES   REMARKS
JACKSON        CLEAR     74  60  61 CALM      30.15R
LONDON         CLEAR     74  64  71 CALM      30.13R
SOMERSET*      CLEAR     72  64  78 CALM      30.13R
MONTICELLO*    CLEAR     68  67  96 CALM      30.14R
MIDDLESBORO*   CLEAR     71  64  78 W3        30.14R
HAZARD APT*    CLEAR     72  66  83 CALM      30.15
PIKEVILLE APT* CLEAR     72  63  73 NE3       30.16R
BIG SANDY*     CLEAR     71  64  79 E3        30.15R
MOREHEAD APT*  CLEAR     73  59  60 CALM      30.15R
$$

KYZ035-036-041-042-044-050-067-078-099-290200
...CENTRAL KENTUCKY...

CITY           SKY/WX    TMP DP  RH WIND       PRES   REMARKS
MT STERLING*   PTCLDY    73  63  68 E5        30.14R
FLEMING/MASON* CLEAR     70  63  78 E5        30.15R
DANVILLE*      PTCLDY    72  64  78 CALM      30.12S
RICHMOND*      CLEAR     75  63  64 CALM      30.12R
LEXINGTON      CLEAR     73  60  63 NE8       30.12R
FRANKFORT      CLEAR     69  62  78 CALM      30.10R
$$

KYZ091>093-OHZ055-061-077-WVZ005-015-034-035-042-290200
...SOUTHERN OHIO/WEST VIRGINIA...

CITY           SKY/WX    TMP DP  RH WIND       PRES   REMARKS
COVINGTON      MOCLDY    70  58  65 SE5       30.11S
COLUMBUS       MOCLDY    73  56  54 SE3       30.13S
DAYTON         MOCLDY    70  57  63 SE5       30.14R
WILMINGTON     PTCLDY    67  58  72 E5        30.13S
HUNTINGTON     CLEAR     74  58  57 NE5       30.13R
CHARLESTON     CLEAR     70  63  78 CALM      30.14R
PINEVILLE*     CLEAR     65  64  96 MISG      30.23S
BECKLEY        CLEAR     67  60  78 CALM      30.23R
BLUEFIELD      CLOUDY    72  59  63 S3        30.25R
$$

VAZ002-007-008-TNZ017-027-036-066-071-290200
...SOUTHWEST VIRGINIA/EAST TENNESSEE...

CITY           SKY/WX    TMP DP  RH WIND       PRES   REMARKS
WISE*          PTCLDY    70  59  68 NE5       30.23S
JONESVILLE*    CLEAR     68  64  88 CALM      30.17R
ABINGDON*      CLEAR     70  62  74 CALM      30.20R
BRISTOL        PTCLDY    70  63  78 E3        30.16R
KNOXVILLE      MOCLDY    79  61  53 E5        30.11R
OAK RIDGE      MOCLDY    75  65  70 CALM      30.13R
CROSSVILLE     CLEAR     71  64  78 CALM      30.16R
NASHVILLE      PTCLDY    79  62  56 S5        30.06R
$$

...KEY TO REMARKS...
VSB - VISIBILITY IN MILES
WCI - WIND CHILL INDEX
HX  - HEAT INDEX

$$



USA.gov is the U.S. government's official web portal to all federal, state and local government web resources and services.